Location: *
(35.8942°N, 23.3025°E)
Time: 17:08:16
(UTC+00:00)

Gurwin Techsat 1B - Pass Details

Date: 10 April 2023
Orbit: 811 x 813 km, 98.9° (Epoch: 03 June)

Event Time Altitude Azimuth Distance (km) Brightness Sun altitude
Rises 01:55:36 0° 5° (N) 3,344 12.3 -24.6°
Reaches altitude 10° 01:58:03 10° 358° (N) 2,408 11.4 -24.2°
Enters shadow 02:02:54 42° 293° (WNW) 1,153 9.1 -23.3°
